Simultaneous Nadir Overpasses (SNOs) Predictions

Prediction of SNOs between GOES-14 and NPP Satellite Orbit:

Table of predicted SNOs for the next 14.0 days since TLE Epoch: 3/7/2025
Index Date Time (GOES-14) GOES-14 Lat,Lon NPP Lat,Lon Distance(km) Time Diff (sec)
1 03/07/2025 20:49:34 -0.48,-108.00 0.00,-110.67 301.06 80
2 03/08/2025 20:30:30 -0.48,-108.01 -0.03,-105.90 240.74 80
3 03/10/2025 08:49:37 0.48,-108.06 1.19,-111.16 353.92 80
4 03/11/2025 08:33:31 0.49,-108.07 0.15,-106.63 164.70 80
5 03/12/2025 20:52:45 -0.48,-108.06 -1.33,-111.92 439.43 80
6 03/13/2025 20:36:39 -0.49,-108.07 -0.35,-107.37 79.39 80
7 03/16/2025 08:39:40 0.48,-108.14 0.45,-108.11 4.72 80
8 03/18/2025 20:40:08 -0.48,-108.14 -0.63,-108.85 81.27 80
9 03/19/2025 20:24:01 -0.49,-108.15 0.36,-104.31 437.41 80
10 03/21/2025 08:43:07 0.47,-108.19 0.77,-109.58 157.44 80
